Tracking 28237 objects as of 29-Nov-2023
HD Live streaming from Space Station
objects crossing your sky now

LEASAT 5 PKM (SSUS-A)

Track LEASAT 5 PKM (SSUS-A) now!
10-day predictions


NORAD ID: 20411
Int'l Code: 1990-002C
Perigee: 264.1 km
Apogee: 11,258.7 km
Inclination: 27.2 °
Period: 221.7 minutes
Semi major axis: 12132 km
RCS: 3.708 m2 (large)
Launch date: January 9, 1990
Source: United States (US)
Launch site: AIR FORCE EASTERN TEST RANGE (AFETR)

Note: This is a ROCKET BODY
Your satellite tracking list
Your tracking list is empty




NASA's NSSDC Master Catalog

Two Line Element Set (TLE):
1 20411U 90002C   23333.49075941  .00046020  00000-0  26422-2 0  9992
2 20411  27.2322 140.9498 4531088 123.0338 288.8022  6.49655886671935
Source of the keplerian elements: AFSPC